Starlink 33715

operational
NORAD ID: 63441 Int'l Des: 2025-069 Owner: SPXS Country: US Constellation: starlink
LEOCIRCULAR

关于 Starlink 33715

正在加载描述...

实时位置

正在加载3D地球...

即将过境

高度历史

Altitude vs Time

uPlot chart will show altitude changes over time

两行轨道根数

1 63441U 25069J 25353.74570439 .00015181 00000-0 52371-3 0 9994
2 63441 53.1564 153.8970 0001151 98.0581 262.0551 15.30195506 41164
Epoch: Dec 19, 2025 • Age: 9 hours

当前状态

高度 481.8 km
速度 7.62 km/s
星下点 -22.36°S, 138.49°W
发射日期 Apr 4, 2025
运行时间 0.7 years
类型 internet

技术详情

分类 Payload
质量 575.00 kg
干质量 530.00 kg
总质量 575.00 kg
长度 0.30 m
直径 4.10 m
跨度 29.00 m
形状 Box + pan
制造商 SPXS
平台类型 Starlink V2MO
阶段状态 In Orbit
所有者/国家 SPXS/US

大型星座

Loading constellations...